| time (UTC) | temp F | wind direction | speed knots | gust knots | rain 1hr in | rain 24hr in | rain mn in | humidity % | barometer mb |
| 20260906223517 | 88 | 0 | 1.7 | 6.1 | 0.00 | 0.00 | 0.00 | 35 | 1012.4 |
| 20260906223017 | 89 | 42 | 0.9 | 6.1 | 0.00 | 0.00 | 0.00 | 34 | 1012.5 |
| 20260906222513 | 89 | 17 | 0.9 | 5.2 | 0.00 | 0.00 | 0.00 | 35 | 1012.8 |
| 20260906222012 | 89 | 348 | 1.7 | 7.0 | 0.00 | 0.00 | 0.00 | 33 | 1012.8 |
| 20260906221513 | 89 | 113 | 2.6 | 7.0 | 0.00 | 0.00 | 0.00 | 34 | 1013.0 |
| 20260906221239 | 89 | 173 | 2.6 | 9.6 | 0.00 | 0.00 | 0.00 | 35 | 1012.9 |
| 20260906220510 | 90 | 329 | 2.6 | 9.6 | 0.00 | 0.00 | 0.00 | 33 | 1012.9 |
| 20260906220010 | 90 | 86 | 1.7 | 7.0 | 0.00 | 0.00 | 0.00 | 34 | 1013.1 |
| 20260906215512 | 90 | 61 | 1.7 | 7.0 | 0.00 | 0.00 | 0.00 | 33 | 1013.1 |
| 20260906215010 | 90 | 315 | 1.7 | 5.2 | 0.00 | 0.00 | 0.00 | 32 | 1013.1 |
| 20260906214511 | 90 | 37 | 2.6 | 7.0 | 0.00 | 0.00 | 0.00 | 34 | 1013.3 |
| 20260906214006 | 90 | 161 | 4.3 | 10.4 | 0.00 | 0.00 | 0.00 | 33 | 1013.3 |
| 20260906213508 | 90 | 30 | 3.5 | 10.4 | 0.00 | 0.00 | 0.00 | 34 | 1013.5 |
| 20260906213006 | 89 | 50 | 1.7 | 8.7 | 0.00 | 0.00 | 0.00 | 35 | 1013.5 |
| 20260906212729 | 89 | 45 | 1.7 | 5.2 | 0.00 | 0.00 | 0.00 | 34 | 1013.7 |
| 20260906212007 | 89 | 54 | 1.7 | 5.2 | 0.00 | 0.00 | 0.00 | 34 | 1013.8 |
| 20260906211729 | 89 | 87 | 1.7 | 6.1 | 0.00 | 0.00 | 0.00 | 35 | 1014.0 |
| 20260906211006 | 90 | 93 | 1.7 | 6.1 | 0.00 | 0.00 | 0.00 | 34 | 1014.1 |
| 20260906210507 | 90 | 20 | 1.7 | 3.5 | 0.00 | 0.00 | 0.00 | 35 | 1014.2 |
| 20260906210008 | 90 | 113 | 0.9 | 3.5 | 0.00 | 0.00 | 0.00 | 33 | 1014.2 |
| 20260906205730 | 90 | 113 | 0.9 | 3.5 | 0.00 | 0.00 | 0.00 | 33 | 1014.4 |
| 20260906205003 | 90 | 177 | 1.7 | 3.5 | 0.00 | 0.00 | 0.00 | 34 | 1014.5 |
| 20260906204504 | 89 | 296 | 1.7 | 7.0 | 0.00 | 0.00 | 0.00 | 35 | 1014.5 |
| 20260906204003 | 89 | 78 | 1.7 | 7.0 | 0.00 | 0.00 | 0.00 | 35 | 1014.5 |
| 20260906202504 | 89 | 20 | 1.7 | 6.1 | 0.00 | 0.00 | 0.00 | 36 | 1014.8 |
| 20260906202003 | 88 | 35 | 1.7 | 4.3 | 0.00 | 0.00 | 0.00 | 37 | 1014.8 |
| 20260906201503 | 88 | 15 | 1.7 | 4.3 | 0.00 | 0.00 | 0.00 | 37 | 1014.8 |
| 20260906200958 | 88 | 22 | 1.7 | 5.2 | 0.00 | 0.00 | 0.00 | 36 | 1014.9 |
| 20260906200459 | 88 | 69 | 1.7 | 6.1 | 0.00 | 0.00 | 0.00 | 36 | 1015.0 |
| 20260906195959 | 88 | 41 | 1.7 | 6.1 | 0.00 | 0.00 | 0.00 | 36 | 1015.1 |
| 20260906195458 | 88 | 126 | 0.9 | 6.1 | 0.00 | 0.00 | 0.00 | 36 | 1015.0 |
| 20260906194959 | 88 | 102 | 0.9 | 3.5 | 0.00 | 0.00 | 0.00 | 36 | 1015.1 |
| 20260906194500 | 89 | 55 | 0.9 | 3.5 | 0.00 | 0.00 | 0.00 | 34 | 1015.0 |
| 20260906193959 | 89 | 53 | 0.9 | 3.5 | 0.00 | 0.00 | 0.00 | 37 | 1015.4 |
| 20260906193500 | 89 | 154 | 0.9 | 3.5 | 0.00 | 0.00 | 0.00 | 35 | 1015.5 |
| 20260906192959 | 88 | 336 | 1.7 | 4.3 | 0.00 | 0.00 | 0.00 | 35 | 1015.5 |
| 20260906192454 | 88 | 54 | 1.7 | 5.2 | 0.00 | 0.00 | 0.00 | 37 | 1015.6 |
| 20260906191955 | 88 | 347 | 1.7 | 5.2 | 0.00 | 0.00 | 0.00 | 36 | 1015.6 |
| 20260906191454 | 87 | 64 | 1.7 | 7.0 | 0.00 | 0.00 | 0.00 | 38 | 1015.7 |
| 20260906190954 | 87 | 28 | 1.7 | 7.0 | 0.00 | 0.00 | 0.00 | 37 | 1015.8 |
| 20260906190455 | 87 | 34 | 0.9 | 4.3 | 0.00 | 0.00 | 0.00 | 38 | 1015.9 |
| 20260906185954 | 87 | 0 | 1.7 | 4.3 | 0.00 | 0.00 | 0.00 | 37 | 1015.9 |
| 20260906185456 | 87 | 0 | 2.6 | 5.2 | 0.00 | 0.00 | 0.00 | 37 | 1016.2 |
| 20260906184455 | 86 | 32 | 1.7 | 5.2 | 0.00 | 0.00 | 0.00 | 39 | 1016.4 |
| 20260906183952 | 86 | 22 | 0.9 | 5.2 | 0.00 | 0.00 | 0.00 | 38 | 1016.4 |
| 20260906183451 | 86 | 105 | 1.7 | 4.3 | 0.00 | 0.00 | 0.00 | 41 | 1016.5 |
| 20260906182952 | 85 | 28 | 1.7 | 4.3 | 0.00 | 0.00 | 0.00 | 40 | 1016.5 |
| 20260906182450 | 85 | 0 | 0.9 | 3.5 | 0.00 | 0.00 | 0.00 | 40 | 1016.8 |
| 20260906181951 | 85 | 0 | 0.9 | 4.3 | 0.00 | 0.00 | 0.00 | 40 | 1017.0 |
| 20260906181451 | 85 | 0 | 0.9 | 4.3 | 0.00 | 0.00 | 0.00 | 39 | 1016.9 |
| 20260906180951 | 85 | 0 | 1.7 | 3.5 | 0.00 | 0.00 | 0.00 | 41 | 1017.1 |
| 20260906180450 | 85 | 0 | 1.7 | 3.5 | 0.00 | 0.00 | 0.00 | 41 | 1017.2 |
| 20260906175951 | 85 | 0 | 1.7 | 3.5 | 0.00 | 0.00 | 0.00 | 43 | 1017.2 |
| 20260906175448 | 85 | 0 | 0.9 | 3.5 | 0.00 | 0.00 | 0.00 | 40 | 1017.4 |
| 20260906174947 | 85 | 74 | 0.9 | 3.5 | 0.00 | 0.00 | 0.00 | 42 | 1017.5 |
| 20260906174446 | 85 | 0 | 1.7 | 4.3 | 0.00 | 0.00 | 0.00 | 44 | 1017.5 |
| 20260906173946 | 85 | 119 | 1.7 | 4.3 | 0.00 | 0.00 | 0.00 | 41 | 1017.6 |
| 20260906173448 | 84 | 0 | 0.9 | 3.5 | 0.00 | 0.00 | 0.00 | 45 | 1017.7 |
| 20260906172946 | 84 | 0 | 0.9 | 3.5 | 0.00 | 0.00 | 0.00 | 43 | 1017.8 |
| 20260906171946 | 83 | 0 | 1.7 | 3.5 | 0.00 | 0.00 | 0.00 | 45 | 1017.8 |
| 20260906171448 | 83 | 0 | 1.7 | 4.3 | 0.00 | 0.00 | 0.00 | 44 | 1017.9 |
| 20260906170943 | 83 | 28 | 0.9 | 4.3 | 0.00 | 0.00 | 0.00 | 45 | 1018.1 |
| 20260906170444 | 83 | 197 | 0.9 | 3.5 | 0.00 | 0.00 | 0.00 | 43 | 1018.2 |
| 20260906165942 | 82 | 0 | 1.7 | 3.5 | 0.00 | 0.00 | 0.00 | 46 | 1018.2 |
| 20260906165442 | 82 | 0 | 1.7 | 3.5 | 0.00 | 0.00 | 0.00 | 47 | 1018.3 |
| 20260906163457 | 81 | 178 | 1.7 | 4.3 | 0.00 | 0.00 | 0.00 | 47 | 1018.3 |
| 20260906162439 | 80 | 0 | 0.9 | 2.6 | 0.00 | 0.00 | 0.00 | 50 | 1018.3 |
| 20260906161938 | 79 | 0 | 0.9 | 2.6 | 0.00 | 0.00 | 0.00 | 52 | 1018.3 |
| 20260906161438 | 79 | 0 | 0.9 | 2.6 | 0.00 | 0.00 | 0.00 | 52 | 1018.2 |
| 20260906160938 | 78 | 0 | 0.9 | 2.6 | 0.00 | 0.00 | 0.00 | 53 | 1018.3 |
| 20260906160451 | 78 | 0 | 0.0 | 2.6 | 0.00 | 0.00 | 0.00 | 54 | 1018.3 |
| 20260906155938 | 78 | 0 | 0.0 | 2.6 | 0.00 | 0.00 | 0.00 | 55 | 1018.3 |
| 20260906155440 | 78 | 0 | 0.9 | 2.6 | 0.00 | 0.00 | 0.00 | 52 | 1018.3 |
| 20260906154939 | 78 | 60 | 0.9 | 2.6 | 0.00 | 0.00 | 0.00 | 54 | 1018.3 |
| 20260906154452 | 78 | 61 | 0.9 | 2.6 | 0.00 | 0.00 | 0.00 | 55 | 1018.3 |
| 20260906153936 | 77 | 0 | 0.9 | 3.5 | 0.00 | 0.00 | 0.00 | 57 | 1018.3 |
| 20260906153436 | 77 | 338 | 0.9 | 3.5 | 0.00 | 0.00 | 0.00 | 58 | 1018.3 |
| 20260906152934 | 77 | 0 | 0.9 | 3.5 | 0.00 | 0.00 | 0.00 | 58 | 1018.4 |
| 20260906152434 | 76 | 0 | 0.9 | 3.5 | 0.00 | 0.00 | 0.00 | 58 | 1018.4 |
| 20260906151934 | 76 | 0 | 1.7 | 4.3 | 0.00 | 0.00 | 0.00 | 58 | 1018.4 |
| 20260906151434 | 75 | 0 | 0.9 | 4.3 | 0.00 | 0.00 | 0.00 | 61 | 1018.4 |
| 20260906150934 | 75 | 0 | 0.9 | 3.5 | 0.00 | 0.00 | 0.00 | 63 | 1018.4 |
| 20260906150434 | 74 | 0 | 0.9 | 2.6 | 0.00 | 0.00 | 0.00 | 64 | 1018.5 |
| 20260906145935 | 73 | 0 | 0.9 | 3.5 | 0.00 | 0.00 | 0.00 | 65 | 1018.5 |
| 20260906145431 | 73 | 0 | 1.7 | 3.5 | 0.00 | 0.00 | 0.00 | 65 | 1018.5 |
| 20260906144930 | 72 | 0 | 1.7 | 3.5 | 0.00 | 0.00 | 0.00 | 67 | 1018.4 |
| 20260906143931 | 70 | 0 | 0.9 | 2.6 | 0.00 | 0.00 | 0.00 | 71 | 1018.5 |
| 20260906142931 | 69 | 0 | 0.9 | 3.5 | 0.00 | 0.00 | 0.00 | 73 | 1018.5 |
| 20260906141932 | 67 | 0 | 1.7 | 3.5 | 0.00 | 0.00 | 0.00 | 75 | 1018.5 |
| 20260906141433 | 65 | 0 | 1.7 | 3.5 | 0.00 | 0.00 | 0.00 | 76 | 1018.5 |
| 20260906140941 | 65 | 0 | 0.9 | 2.6 | 0.00 | 0.00 | 0.00 | 77 | 1018.5 |
| 20260906140428 | 64 | 0 | 0.0 | 1.7 | 0.00 | 0.00 | 0.00 | 78 | 1018.6 |
| 20260906135426 | 62 | 0 | 0.0 | 1.7 | 0.00 | 0.00 | 0.00 | 80 | 1018.6 |
| 20260906134926 | 62 | 0 | 0.0 | 1.7 | 0.00 | 0.00 | 0.00 | 80 | 1018.5 |
| 20260906134426 | 61 | 0 | 0.0 | 1.7 | 0.00 | 0.00 | 0.00 | 80 | 1018.6 |
| 20260906133927 | 61 | 0 | 0.0 | 0.9 | 0.00 | 0.00 | 0.00 | 80 | 1018.5 |
| 20260906133429 | 61 | 0 | 0.0 | 1.7 | 0.00 | 0.00 | 0.00 | 80 | 1018.4 |
| 20260906132928 | 61 | 0 | 0.0 | 1.7 | 0.00 | 0.00 | 0.00 | 80 | 1018.3 |
| 20260906132424 | 61 | 0 | 0.0 | 1.7 | 0.00 | 0.00 | 0.00 | 80 | 1018.2 |
| 20260906131924 | 61 | 0 | 0.9 | 1.7 | 0.00 | 0.00 | 0.00 | 80 | 1018.3 |
| 20260906131422 | 61 | 0 | 0.9 | 1.7 | 0.00 | 0.00 | 0.00 | 79 | 1018.2 |
| 20260906130924 | 61 | 0 | 0.9 | 1.7 | 0.00 | 0.00 | 0.00 | 80 | 1018.2 |
| 20260906130424 | 61 | 0 | 0.0 | 1.7 | 0.00 | 0.00 | 0.00 | 79 | 1018.2 |
| 20260906125923 | 61 | 0 | 0.0 | 0.9 | 0.00 | 0.00 | 0.00 | 79 | 1018.2 |
| 20260906125422 | 61 | 0 | 0.0 | 0.9 | 0.00 | 0.00 | 0.00 | 79 | 1018.2 |
| 20260906124922 | 61 | 0 | 0.0 | 0.9 | 0.00 | 0.00 | 0.00 | 79 | 1017.9 |
| 20260906124424 | 62 | 0 | 0.0 | 0.9 | 0.00 | 0.00 | 0.00 | 78 | 1017.9 |
| 20260906123918 | 62 | 0 | 0.0 | 0.9 | 0.00 | 0.00 | 0.00 | 77 | 1018.1 |
| 20260906122420 | 62 | 0 | 0.0 | 0.0 | 0.00 | 0.00 | 0.00 | 76 | 1018.1 |
| 20260906121918 | 62 | 0 | 0.0 | 0.0 | 0.00 | 0.00 | 0.00 | 76 | 1018.1 |
| 20260906120418 | 63 | 0 | 0.0 | 0.0 | 0.00 | 0.00 | 0.00 | 75 | 1018.2 |
| 20260906115920 | 63 | 0 | 0.0 | 0.0 | 0.00 | 0.00 | 0.00 | 75 | 1018.2 |
| 20260906115415 | 63 | 0 | 0.0 | 0.0 | 0.00 | 0.00 | 0.00 | 74 | 1018.1 |
| 20260906114916 | 63 | 0 | 0.0 | 0.0 | 0.00 | 0.00 | 0.00 | 75 | 1017.9 |
| 20260906114414 | 64 | 0 | 0.0 | 0.9 | 0.00 | 0.00 | 0.00 | 74 | 1018.1 |
| 20260906112914 | 64 | 0 | 0.0 | 2.6 | 0.00 | 0.00 | 0.00 | 73 | 1018.2 |
| 20260906112414 | 64 | 0 | 0.9 | 2.6 | 0.00 | 0.00 | 0.00 | 73 | 1017.9 |
| 20260906111914 | 64 | 0 | 0.9 | 2.6 | 0.00 | 0.00 | 0.00 | 73 | 1017.8 |
| 20260906111416 | 64 | 0 | 1.7 | 3.5 | 0.00 | 0.00 | 0.00 | 73 | 1017.8 |
| 20260906110911 | 64 | 0 | 1.7 | 4.3 | 0.00 | 0.00 | 0.00 | 73 | 1017.8 |
| 20260906110411 | 64 | 0 | 1.7 | 5.2 | 0.00 | 0.00 | 0.00 | 73 | 1017.8 |
| 20260906105910 | 64 | 0 | 1.7 | 5.2 | 0.00 | 0.00 | 0.00 | 72 | 1017.8 |
| 20260906105410 | 65 | 0 | 1.7 | 5.2 | 0.00 | 0.00 | 0.00 | 71 | 1017.7 |
| 20260906104911 | 65 | 0 | 1.7 | 4.3 | 0.00 | 0.00 | 0.00 | 71 | 1017.7 |
| 20260906104411 | 65 | 0 | 1.7 | 4.3 | 0.00 | 0.00 | 0.00 | 70 | 1017.7 |
| 20260906103913 | 65 | 0 | 1.7 | 3.5 | 0.00 | 0.00 | 0.00 | 69 | 1017.6 |
| 20260906103410 | 65 | 0 | 1.7 | 5.2 | 0.00 | 0.00 | 0.00 | 68 | 1017.6 |
| 20260906102911 | 65 | 0 | 1.7 | 5.2 | 0.00 | 0.00 | 0.00 | 67 | 1017.6 |
| 20260906101906 | 65 | 0 | 0.9 | 3.5 | 0.00 | 0.00 | 0.00 | 66 | 1017.4 |
| 20260906101408 | 65 | 0 | 1.7 | 4.3 | 0.00 | 0.00 | 0.00 | 64 | 1017.2 |
| 20260906100906 | 65 | 0 | 1.7 | 5.2 | 0.00 | 0.00 | 0.00 | 64 | 1017.2 |
| 20260906100420 | 65 | 0 | 1.7 | 5.2 | 0.00 | 0.00 | 0.00 | 63 | 1017.4 |
| 20260906095906 | 65 | 0 | 1.7 | 5.2 | 0.00 | 0.00 | 0.00 | 62 | 1017.4 |
| 20260906094906 | 65 | 0 | 0.0 | 3.5 | 0.00 | 0.00 | 0.00 | 61 | 1017.4 |
| 20260906094407 | 66 | 0 | 0.0 | 0.0 | 0.00 | 0.00 | 0.00 | 59 | 1017.5 |
| 20260906092903 | 66 | 0 | 0.0 | 0.0 | 0.00 | 0.00 | 0.00 | 59 | 1017.4 |
| 20260906092403 | 66 | 0 | 0.0 | 0.0 | 0.00 | 0.00 | 0.00 | 59 | 1017.4 |
| 20260906091902 | 66 | 0 | 0.0 | 0.0 | 0.00 | 0.00 | 0.00 | 58 | 1017.4 |
| 20260906091402 | 67 | 0 | 0.0 | 0.0 | 0.00 | 0.00 | 0.00 | 58 | 1017.2 |
| 20260906090903 | 67 | 0 | 0.0 | 0.0 | 0.00 | 0.00 | 0.00 | 58 | 1017.2 |
| 20260906090404 | 67 | 0 | 0.0 | 0.0 | 0.00 | 0.00 | 0.00 | 58 | 1017.2 |
| 20260906085908 | 67 | 0 | 0.0 | 0.0 | 0.00 | 0.00 | 0.00 | 57 | 1017.1 |
| 20260906085400 | 67 | 0 | 0.0 | 0.0 | 0.00 | 0.00 | 0.00 | 57 | 1017.1 |
| 20260906084904 | 67 | 0 | 0.0 | 0.0 | 0.00 | 0.00 | 0.00 | 57 | 1017.1 |
| 20260906084406 | 68 | 0 | 0.0 | 0.0 | 0.00 | 0.00 | 0.00 | 57 | 1017.0 |
| 20260906083901 | 68 | 0 | 0.0 | 0.0 | 0.00 | 0.00 | 0.00 | 56 | 1016.9 |
| 20260906083403 | 68 | 0 | 0.0 | 0.9 | 0.00 | 0.00 | 0.00 | 56 | 1016.9 |
| 20260906082900 | 68 | 0 | 0.0 | 0.9 | 0.00 | 0.00 | 0.00 | 55 | 1017.0 |
| 20260906082400 | 69 | 0 | 0.0 | 0.9 | 0.00 | 0.00 | 0.00 | 54 | 1017.2 |
| 20260906081858 | 69 | 0 | 0.0 | 0.0 | 0.00 | 0.00 | 0.00 | 54 | 1017.1 |
| 20260906081359 | 69 | 0 | 0.0 | 0.0 | 0.00 | 0.00 | 0.00 | 53 | 1017.1 |
| 20260906080354 | 69 | 0 | 0.0 | 0.9 | 0.00 | 0.00 | 0.00 | 52 | 1017.0 |
| 20260906075854 | 70 | 0 | 0.0 | 0.9 | 0.00 | 0.00 | 0.00 | 52 | 1017.0 |
| 20260906074856 | 70 | 0 | 0.0 | 0.0 | 0.00 | 0.00 | 0.00 | 51 | 1016.7 |
| 20260906074355 | 70 | 0 | 0.0 | 1.7 | 0.00 | 0.00 | 0.00 | 51 | 1016.8 |
| 20260906073854 | 70 | 0 | 0.0 | 1.7 | 0.00 | 0.00 | 0.00 | 51 | 1016.7 |
| 20260906073354 | 70 | 0 | 0.9 | 3.5 | 0.00 | 0.00 | 0.00 | 51 | 1016.5 |
| 20260906072856 | 70 | 0 | 1.7 | 4.3 | 0.00 | 0.00 | 0.00 | 51 | 1016.5 |
| 20260906070850 | 70 | 0 | 2.6 | 7.8 | 0.00 | 0.00 | 0.00 | 52 | 1016.2 |
| 20260906070350 | 70 | 0 | 2.6 | 8.7 | 0.00 | 0.00 | 0.00 | 52 | 1016.3 |
| 20260906065350 | 70 | 0 | 0.9 | 5.2 | 0.00 | 0.00 | 0.00 | 53 | 1016.5 |
| 20260906064850 | 70 | 0 | 0.9 | 2.6 | 0.00 | 0.00 | 0.00 | 52 | 1016.7 |
| 20260906064352 | 71 | 0 | 0.9 | 2.6 | 0.00 | 0.00 | 0.00 | 52 | 1016.8 |
| 20260906063846 | 71 | 0 | 0.9 | 2.6 | 0.00 | 0.00 | 0.00 | 51 | 1016.8 |
| 20260906063350 | 71 | 0 | 0.0 | 0.9 | 0.00 | 0.00 | 0.00 | 52 | 1016.8 |
| 20260906062848 | 71 | 0 | 0.0 | 0.9 | 0.00 | 0.00 | 0.00 | 51 | 1016.9 |
| 20260906061847 | 72 | 0 | 0.0 | 0.9 | 0.00 | 0.00 | 0.00 | 51 | 1016.9 |
| 20260906061348 | 72 | 0 | 0.0 | 0.9 | 0.00 | 0.00 | 0.00 | 50 | 1017.0 |
| 20260906060850 | 72 | 0 | 0.0 | 0.9 | 0.00 | 0.00 | 0.00 | 50 | 1017.0 |
| 20260906055849 | 72 | 0 | 0.0 | 1.7 | 0.00 | 0.00 | 0.00 | 49 | 1017.0 |
| 20260906055343 | 72 | 0 | 0.9 | 3.5 | 0.00 | 0.00 | 0.00 | 49 | 1017.1 |
| 20260906054837 | 72 | 0 | 1.7 | 7.0 | 0.00 | 0.00 | 0.00 | 49 | 1017.1 |
| 20260906054330 | 72 | 0 | 1.7 | 7.0 | 0.00 | 0.00 | 0.00 | 49 | 1017.1 |
| 20260906053825 | 72 | 0 | 0.0 | 3.5 | 0.00 | 0.00 | 0.00 | 48 | 1017.1 |
| 20260906053320 | 72 | 0 | 0.0 | 0.0 | 0.00 | 0.00 | 0.00 | 47 | 1017.1 |
| 20260906052813 | 72 | 0 | 0.0 | 0.0 | 0.00 | 0.00 | 0.00 | 47 | 1017.4 |
| 20260906052308 | 72 | 0 | 0.0 | 3.5 | 0.00 | 0.00 | 0.00 | 46 | 1017.1 |
| 20260906051255 | 72 | 0 | 0.0 | 0.0 | 0.00 | 0.00 | 0.00 | 46 | 1017.5 |
| 20260906050754 | 72 | 0 | 0.0 | 0.0 | 0.00 | 0.00 | 0.00 | 46 | 1017.6 |
| 20260906045753 | 72 | 0 | 0.9 | 2.6 | 0.00 | 0.00 | 0.00 | 47 | 1017.7 |
| 20260906045250 | 72 | 0 | 0.9 | 3.5 | 0.00 | 0.00 | 0.00 | 46 | 1017.7 |
| 20260906044749 | 72 | 0 | 0.9 | 3.5 | 0.00 | 0.00 | 0.00 | 46 | 1017.8 |
| 20260906044249 | 72 | 0 | 0.0 | 3.5 | 0.00 | 0.00 | 0.00 | 46 | 1017.9 |
| 20260906043749 | 72 | 0 | 0.0 | 1.7 | 0.00 | 0.00 | 0.00 | 46 | 1017.7 |
| 20260906042749 | 72 | 0 | 0.0 | 1.7 | 0.00 | 0.00 | 0.00 | 47 | 1017.7 |
| 20260906041746 | 72 | 0 | 0.0 | 0.9 | 0.00 | 0.00 | 0.00 | 45 | 1017.2 |
| 20260906035738 | 73 | 0 | 0.0 | 0.9 | 0.00 | 0.00 | 0.00 | 44 | 1016.5 |
| 20260906035237 | 73 | 0 | 0.0 | 0.9 | 0.00 | 0.00 | 0.00 | 44 | 1016.3 |
| 20260906034734 | 74 | 0 | 0.0 | 0.9 | 0.00 | 0.00 | 0.00 | 44 | 1016.3 |
| 20260906034236 | 74 | 0 | 0.0 | 1.7 | 0.00 | 0.00 | 0.00 | 43 | 1016.3 |
| 20260906033730 | 74 | 0 | 0.0 | 1.7 | 0.00 | 0.00 | 0.00 | 43 | 1016.2 |
| 20260906032717 | 75 | 0 | 0.0 | 0.9 | 0.00 | 0.00 | 0.00 | 41 | 1016.2 |
| 20260906032213 | 75 | 0 | 0.0 | 0.9 | 0.00 | 0.00 | 0.00 | 41 | 1016.3 |
| 20260906031159 | 76 | 0 | 0.0 | 1.7 | 0.00 | 0.00 | 0.00 | 40 | 1016.2 |
| 20260906030654 | 77 | 0 | 0.0 | 1.7 | 0.00 | 0.00 | 0.00 | 39 | 1016.1 |
| 20260906030148 | 77 | 0 | 0.0 | 1.7 | 0.00 | 0.00 | 0.00 | 37 | 1015.8 |
| 20260906025642 | 78 | 0 | 0.0 | 0.0 | 0.00 | 0.00 | 0.00 | 36 | 1015.6 |
| 20260906024655 | 78 | 0 | 0.0 | 0.9 | 0.00 | 0.00 | 0.00 | 35 | 1015.4 |
| 20260906023638 | 79 | 0 | 0.0 | 0.9 | 0.00 | 0.00 | 0.00 | 34 | 1015.4 |
| 20260906023134 | 80 | 0 | 0.0 | 1.7 | 0.00 | 0.00 | 0.00 | 34 | 1015.2 |
| 20260906022634 | 80 | 0 | 0.9 | 2.6 | 0.00 | 0.00 | 0.00 | 33 | 1015.4 |
| 20260906022131 | 80 | 0 | 0.9 | 2.6 | 0.00 | 0.00 | 0.00 | 33 | 1015.4 |
| 20260906021644 | 80 | 0 | 0.9 | 2.6 | 0.00 | 0.00 | 0.00 | 33 | 1015.2 |
| 20260906021131 | 81 | 0 | 0.9 | 2.6 | 0.00 | 0.00 | 0.00 | 33 | 1015.1 |
| 20260906020643 | 81 | 0 | 0.9 | 3.5 | 0.00 | 0.00 | 0.00 | 33 | 1015.1 |
| 20260906020132 | 81 | 0 | 1.7 | 3.5 | 0.00 | 0.00 | 0.00 | 32 | 1015.0 |
| 20260906015628 | 82 | 0 | 1.7 | 4.3 | 0.00 | 0.00 | 0.00 | 31 | 1015.0 |
| 20260906015130 | 82 | 0 | 1.7 | 4.3 | 0.00 | 0.00 | 0.00 | 31 | 1014.9 |
| 20260906014627 | 82 | 323 | 2.6 | 6.1 | 0.00 | 0.00 | 0.00 | 31 | 1014.9 |
| 20260906014125 | 83 | 319 | 2.6 | 6.1 | 0.00 | 0.00 | 0.00 | 30 | 1014.8 |
| 20260906013624 | 83 | 0 | 2.6 | 5.2 | 0.00 | 0.00 | 0.00 | 30 | 1014.7 |
| 20260906013123 | 83 | 0 | 2.6 | 7.0 | 0.00 | 0.00 | 0.00 | 30 | 1014.7 |
| 20260906012122 | 84 | 0 | 3.5 | 7.0 | 0.00 | 0.00 | 0.00 | 30 | 1014.8 |
| 20260906011622 | 84 | 346 | 2.6 | 7.0 | 0.00 | 0.00 | 0.00 | 29 | 1014.8 |
| 20260906010125 | 84 | 0 | 2.6 | 5.2 | 0.00 | 0.00 | 0.00 | 28 | 1014.5 |
| 20260906005623 | 85 | 346 | 2.6 | 5.2 | 0.00 | 0.00 | 0.00 | 28 | 1014.7 |
| 20260906005123 | 85 | 313 | 1.7 | 5.2 | 0.00 | 0.00 | 0.00 | 28 | 1014.7 |
| 20260906004623 | 85 | 16 | 0.9 | 5.2 | 0.00 | 0.00 | 0.00 | 29 | 1014.5 |
| 20260906004121 | 85 | 0 | 0.0 | 0.9 | 0.00 | 0.00 | 0.00 | 30 | 1014.5 |
| 20260906003116 | 86 | 317 | 0.0 | 2.6 | 0.00 | 0.00 | 0.00 | 29 | 1014.5 |
| 20260906002617 | 86 | 126 | 0.0 | 2.6 | 0.00 | 0.00 | 0.00 | 30 | 1014.5 |
| 20260906002113 | 87 | 126 | 0.0 | 2.6 | 0.00 | 0.00 | 0.00 | 30 | 1014.5 |
| 20260906001613 | 87 | 126 | 0.0 | 0.9 | 0.00 | 0.00 | 0.00 | 29 | 1014.5 |
| 20260906001111 | 87 | 126 | 0.0 | 0.9 | 0.00 | 0.00 | 0.00 | 30 | 1014.5 |
| 20260906000612 | 87 | 126 | 0.0 | 0.9 | 0.00 | 0.00 | 0.00 | 28 | 1014.5 |
| 20260906000113 | 87 | 126 | 0.0 | 1.7 | 0.00 | 0.00 | 0.00 | 28 | 1014.4 |
| 20260905235611 | 87 | 126 | 0.0 | 1.7 | 0.00 | 0.00 | 0.00 | 26 | 1014.4 |
| 20260905235106 | 87 | 126 | 0.0 | 0.9 | 0.00 | 0.00 | 0.00 | 28 | 1014.4 |
| 20260905234602 | 87 | 126 | 0.0 | 0.9 | 0.00 | 0.00 | 0.00 | 28 | 1014.4 |
| 20260905234059 | 87 | 126 | 0.0 | 0.9 | 0.00 | 0.00 | 0.00 | 26 | 1014.4 |
| 20260905233548 | 87 | 126 | 0.0 | 0.0 | 0.00 | 0.00 | 0.00 | 29 | 1014.4 |
| 20260905233048 | 87 | 0 | 0.0 | 0.0 | 0.00 | 0.00 | 0.00 | 28 | 1014.4 |
| 20260905232545 | 87 | 0 | 0.0 | 0.0 | 0.00 | 0.00 | 0.00 | 28 | 1014.3 |
| 20260905231544 | 88 | 0 | 0.0 | 0.0 | 0.00 | 0.00 | 0.00 | 27 | 1014.4 |
| 20260905231040 | 88 | 126 | 0.0 | 0.0 | 0.00 | 0.00 | 0.00 | 27 | 1014.4 |
| 20260905230539 | 89 | 0 | 0.0 | 0.9 | 0.00 | 0.00 | 0.00 | 26 | 1014.5 |
| 20260905230049 | 89 | 0 | 0.0 | 1.7 | 0.00 | 0.00 | 0.00 | 28 | 1014.4 |
| 20260905225538 | 89 | 126 | 0.0 | 1.7 | 0.00 | 0.00 | 0.00 | 26 | 1014.3 |
| 20260905225036 | 89 | 0 | 0.0 | 0.9 | 0.00 | 0.00 | 0.00 | 26 | 1014.3 |
| 20260905224031 | 90 | 126 | 0.0 | 2.6 | 0.00 | 0.00 | 0.00 | 24 | 1014.4 |